Chongqing, China

1:38 AM CST on November 21, 2019 (GMT +0800)
Jiangbei

Weather History for ZUCK - September, 2019

Change the Weather History Date:

Sunday, September 15, 2019

  Actual Average Record
Temperature  
Mean Temperature 67 °F -  
Max Temperature 70 °F - - ()
Min Temperature 64 °F - - ()
Cooling Degree Days 2    
Growing Degree Days 17 (Base 50)    
Moisture  
Dew Point 64 °F    
Average Humidity 87    
Maximum Humidity 100    
Minimum Humidity 70    
Precipitation  
Precipitation 0.04 in - - ()
Sea Level Pressure  
Sea Level Pressure 29.97 in    
Wind  
Wind Speed 5 mph ()    
Max Wind Speed 9 mph    
Max Gust Speed 20 mph    
Visibility 5.6 miles    
Events Fog , Rain    
T = Trace of Precipitation, MM = Missing Value Source: Averaged Metar Reports

Daily Weather History Graph

Daily Weather History Graph

Search for Another Location

Airport or City:

Astronomy

Sep. 15, 2019 Rise Set
Actual Time 6:37 AM CST 6:59 PM CST
Civil Twilight 6:13 AM CST 7:23 PM CST
Nautical Twilight 5:45 AM CST 7:51 PM CST
Astronomical Twilight 5:17 AM CST 8:19 PM CST
Moon 7:54 PM CST (9/15) 7:17 AM CST (9/15)
Length of Visible Light 13h 09m
Length of Day
12h 21m
Full, 99% of the Moon is Illuminated
Sep 15
Full
Sep 22
Last Quarter
Sep 29
New
Oct 6
First Quarter
Oct 14
Full

Hourly Weather History & Observations

Time (CST) Temp. Dew Point Humidity Pressure Visibility Wind Dir Wind Speed Gust Speed Precip Events Conditions
12:00 AM 68.0 °F 62.6 °F 83% 29.98 in 6.2 mi West 8.9 mph - N/A   Scattered Clouds
1:00 AM 68.0 °F 62.6 °F 83% 29.98 in 6.2 mi West 8.9 mph - N/A   Scattered Clouds
3:00 AM 66.2 °F 64.4 °F 94% 29.95 in 6.2 mi West 8.9 mph - N/A   Overcast
4:00 AM 66.2 °F 64.4 °F 94% 29.95 in 6.2 mi West 6.7 mph - N/A   Overcast
5:00 AM 67 °F 63 °F 83% 29.91 in 3 mi WNW 2.2 mph - - Rain Light Rain
5:00 AM 66.2 °F 64.4 °F 94% 29.95 in 6.2 mi West 4.5 mph - N/A   Overcast
6:00 AM 66.2 °F 64.4 °F 94% 29.95 in 5.0 mi West 4.5 mph - N/A   Overcast
8:00 AM 68 °F 63 °F 78% 29.94 in 6 mi NW 4.5 mph - -   Overcast
8:00 AM 66.2 °F 64.4 °F 94% 29.98 in 2.5 mi SE 4.5 mph - N/A Fog , Rain Light Rain
9:00 AM 64.4 °F 64.4 °F 100% 30.01 in 1.9 mi Variable 2.2 mph - N/A Fog , Rain Light Rain
10:00 AM 66.2 °F 64.4 °F 94% 30.01 in 4.3 mi Variable 2.2 mph 20.1 mph N/A   Overcast
11:00 AM 70 °F 62 °F 70% 29.97 in 6 mi WSW 2.2 mph - -   Overcast
11:00 AM 66.2 °F 66.2 °F 100% 30.01 in 3.7 mi SSE 4.5 mph - N/A Fog , Rain Light Rain
12:00 PM 66.2 °F 64.4 °F 94% 30.01 in 3.1 mi West 6.7 mph - N/A Rain Light Rain
1:00 PM 66.2 °F 64.4 °F 94% 29.98 in 3.1 mi West 4.5 mph - N/A Rain Light Rain
2:00 PM 70 °F 64 °F 76% 29.93 in 6 mi Calm Calm - -   Clear
2:00 PM 68.0 °F 64.4 °F 88% 29.98 in 4.3 mi West 4.5 mph - N/A   Overcast
3:00 PM 68.0 °F 64.4 °F 88% 29.95 in 5.0 mi West 4.5 mph - N/A   Overcast
4:00 PM 68.0 °F 64.4 °F 88% 29.95 in 5.0 mi West 4.5 mph - N/A   Overcast
5:00 PM 70 °F 63 °F 73% 29.91 in 9 mi NW 4.5 mph - -   Overcast
5:00 PM 68.0 °F 64.4 °F 88% 29.95 in 6.2 mi NW 6.7 mph - N/A   Overcast
6:00 PM 68.0 °F 64.4 °F 88% 29.95 in 6.2 mi NW 6.7 mph - N/A   Overcast
7:00 PM 68.0 °F 64.4 °F 88% 29.98 in 6.2 mi West 6.7 mph - N/A   Overcast
8:00 PM 69 °F 63 °F 76% 29.95 in 14 mi NW 2.2 mph - -   Overcast
8:00 PM 68.0 °F 62.6 °F 83% 29.98 in 6.2 mi Variable 2.2 mph - N/A   Overcast
9:00 PM 68.0 °F 64.4 °F 88% 30.01 in 6.2 mi West 4.5 mph - N/A   Overcast
10:00 PM 68.0 °F 64.4 °F 88% 30.04 in 6.2 mi West 4.5 mph - N/A Rain Light Rain
11:00 PM 69 °F 64 °F 80% 29.98 in 7 mi NW 2.2 mph - - Rain Light Rain